Location: Agenbach
(47.2667°N, 11.4500°E)
Time: 08:11:43
(UTC+00:00)

STARLINK-1346 - Pass Details

Date: 07 June 2020
Orbit: 376 x 383 km, 53.0° (Epoch: 12 July)

Event Time Altitude Azimuth Distance (km) Brightness Sun altitude
Rises 01:31:52 0° 298° (WNW) 2,263 6.7 -13.3°
Reaches altitude 10° 01:33:59 10° 304° (NW) 1,408 5.7 -13.1°
Maximum altitude 01:37:02 47° 21° (NNE) 515 4.0 -12.8°
Drops below altitude 10° 01:40:05 10° 97° (E) 1,401 6.1 -12.5°
Sets 01:42:10 0° 103° (ESE) 2,252 7.1 -12.3°
